Wind_Speed
5 0 6 7 3 3 5 14 18 22 22 18 21 20 17 11 11 10 8 8 7 5 3 3 3 5 7 9 12 14 15 16 18 20 22 24 25 26 26 26 25 26 27 27 28 29 29 29 27
6 6 6 10 6 9 1 12 14 15 23 23 20 12 16 14 12 8 5 6 5 3 2 3 4 5 5 8 11 14 16 18 20 22 24 25 26 27 29 29 30 30 31 30 31 32 33 32 30
5 4 10 7 2 3 5 12 16 17 19 18 16 15 14 12 10 7 3 5 4 5 5 7 8 8 9 11 13 16 17 19 21 23 25 26 28 29 30 31 32 33 34 33 35 36 35 35 33
5 7 5 11 8 3 9 7 12 23 16 13 12 10 9 9 8 5 8 7 4 7 8 9 10 11 12 13 15 17 18 20 22 24 26 29 30 31 32 33 33 34 35 35 36 36 36 36 35
7 7 1 1 8 8 2 12 11 17 16 12 6 7 10 8 3 2 5 7 6 7 8 10 10 11 13 14 16 18 20 21 22 23 24 26 30 32 34 36 36 35 35 35 34 34 34 35 34
5 6 4 6 8 6 15 8 18 21 14 8 5 7 10 8 7 4 4 7 8 9 10 10 12 14 16 17 18 19 21 24 26 26 26 27 27 30 33 35 37 38 39 37 33 33 34 36 38
5 3 7 10 17 19 16 14 19 21 14 7 3 9 9 12 10 3 1 3 9 13 14 16 19 19 19 18 20 22 23 26 26 27 28 29 29 29 30 32 35 36 35 41 39 37 38 38 40
6 5 8 9 14 17 17 18 18 15 13 8 7 4 9 12 20 14 4 4 9 14 18 21 22 23 25 25 26 26 28 28 27 29 30 30 29 30 31 32 32 32 32 34 37 40 44 46 46
5 9 8 15 14 23 25 19 19 18 12 9 7 9 12 14 16 20 16 10 8 14 23 24 27 28 30 30 31 32 32 32 30 31 31 31 32 31 31 31 33 34 33 37 39 41 42 43 40
5 13 7 16 22 21 21 21 23 19 19 16 13 11 13 14 16 19 19 22 24 21 23 27 29 29 32 32 35 34 35 36 35 34 34 34 31 32 34 35 35 36 35 34 36 37 36 37 39
6 9 21 26 21 29 23 19 17 17 19 16 18 17 14 17 19 19 21 22 23 26 31 33 34 34 35 38 37 37 37 38 38 37 37 38 39 38 39 40 41 40 39 39 40 38 37 41 37
7 14 22 21 19 29 25 17 15 16 16 19 19 22 24 26 22 25 27 28 30 33 36 34 36 37 36 36 37 35 37 37 39 39 39 40 41 43 44 44 44 44 45 47 45 44 41 37 37
9 14 18 14 15 26 21 22 15 17 24 31 25 22 25 23 23 24 28 31 34 35 35 37 37 37 37 35 34 36 36 37 38 39 40 42 43 45 47 49 50 50 50 51 53 53 50 50 49
13 12 10 13 16 22 22 24 25 23 28 26 26 28 24 28 26 25 27 32 35 35 35 37 37 34 35 38 40 41 42 43 44 45 45 45 45 45 47 49 51 52 53 55 56 54 53 52 51
9 8 14 17 22 23 24 26 30 27 29 18 23 32 30 24 26 23 27 27 27 30 34 34 34 38 41 44 43 46 46 46 47 48 47 47 47 48 48 49 50 53 55 55 56 58 54 49 48
10 12 14 23 23 24 31 33 32 33 21 25 25 14 20 24 21 22 23 26 29 31 33 35 38 42 45 48 50 51 51 52 52 52 52 53 51 50 50 50 50 52 52 53 52 51 53 51 49
15 11 14 22 24 26 32 35 29 28 36 31 26 24 22 15 16 15 21 27 30 32 35 39 43 46 49 50 51 53 53 53 53 54 55 55 55 54 54 54 54 53 53 53 51 51 50 48 48
11 13 19 24 28 31 35 28 31 28 30 33 19 25 18 8 13 16 22 27 31 34 37 41 43 44 44 44 46 47 49 50 54 55 54 53 53 53 53 54 57 60 58 56 55 52 51 51 49
13 18 22 25 28 33 33 31 32 32 29 17 27 25 8 22 22 26 28 33 35 37 42 46 44 41 41 38 36 40 42 45 47 50 53 54 54 53 52 52 52 52 57 59 59 57 55 53 52
17 23 28 29 33 35 35 37 35 29 21 32 27 18 22 27 25 29 32 34 37 43 46 45 44 41 37 37 41 39 38 39 40 42 45 48 51 52 50 49 49 49 48 50 53 54 53 52 50
22 29 33 30 31 33 38 37 36 29 32 27 25 30 25 28 30 33 35 38 43 45 42 43 39 35 37 37 37 37 39 40 41 43 45 44 45 46 45 45 45 44 42 42 40 42 45 46 44
23 29 32 31 33 36 37 37 35 32 31 33 34 26 26 30 33 36 40 43 46 47 44 41 36 37 36 37 36 42 43 43 45 47 44 42 41 41 42 39 38 36 36 33 32 34 35 37 37
28 31 32 30 33 38 36 35 32 33 31 26 23 25 29 33 38 40 42 46 48 47 43 36 34 34 33 36 39 42 42 44 44 45 40 38 33 32 34 36 36 33 30 26 23 24 27 28 29
28 26 28 30 32 31 34 30 30 29 20 22 27 30 33 36 38 40 42 45 45 41 36 32 32 30 34 37 40 40 41 43 45 39 36 33 27 22 21 21 23 25 27 24 20 17 16 18 21
35 36 28 23 31 29 27 27 28 23 18 24 27 31 33 36 37 40 43 45 42 38 33 30 28 31 34 36 38 39 41 44 40 37 30 27 24 19 14 12 11 9 11 13 13 11 11 13 14
29 25 25 29 31 30 29 29 23 20 18 26 28 32 35 37 40 42 43 44 37 33 29 26 29 33 35 33 36 39 39 42 38 35 29 23 21 16 11 7 2 4 3 7 7 8 9 11 14
33 29 27 29 30 29 28 21 17 19 22 26 29 33 36 38 40 41 42 41 33 29 25 24 29 33 32 31 35 37 37 38 36 33 29 24 17 12 10 5 7 5 2 7 7 6 6 7 7
29 29 28 28 28 26 20 15 17 19 23 25 32 36 39 40 39 39 40 38 30 27 23 25 29 32 29 30 34 33 32 36 36 33 30 24 17 12 12 8 9 5 1 1 3 4 6 9 8
26 22 24 25 22 19 14 15 18 21 24 30 34 38 39 39 39 39 40 36 28 26 23 26 29 29 27 30 31 31 28 32 35 35 34 28 21 16 15 11 5 5 6 5 5 9 10 10 7
25 19 19 18 15 10 14 16 18 21 27 32 36 38 39 39 40 41 40 35 27 24 22 25 26 23 25 28 27 28 26 28 34 35 36 33 26 22 18 16 12 9 10 16 16 14 14 17 19
Wind_Direction
127 115 271 246 184 88 74 45 44 36 35 35 18 1 343 359 6 358 358 12 30 26 327 11 327 285 282 292 291 285 281 278 278 278 277 278 279 279 277 275 273 274 273 273 272 270 270 270 270
140 33 354 284 219 225 6 14 23 11 6 4 352 9 359 9 9 19 7 342 350 307 296 340 313 295 287 284 282 284 286 286 285 281 278 276 276 276 276 277 276 273 271 271 273 271 269 269 269
105 64 27 17 226 307 172 45 36 3 3 9 30 24 358 360 4 12 35 16 2 311 0 346 331 318 312 300 293 289 286 283 281 278 279 278 277 275 272 273 273 273 273 270 267 269 271 272 272
93 55 68 65 60 318 255 87 39 50 36 48 28 13 339 357 12 5 9 17 352 360 13 4 346 331 318 309 303 296 292 290 288 285 282 278 275 273 273 271 271 271 272 270 269 271 273 274 275
51 7 84 6 58 70 232 38 9 34 39 42 69 0 335 298 32 60 359 7 14 20 3 356 346 335 325 318 304 298 294 291 289 287 286 285 279 275 274 271 269 268 269 271 272 274 275 275 274
50 13 329 349 33 100 360 24 34 30 37 34 42 344 326 325 63 39 358 358 355 355 352 342 330 319 312 309 308 305 299 293 284 280 282 283 285 280 275 271 269 268 269 268 269 271 274 275 273
30 28 353 21 16 356 13 14 15 22 43 65 36 339 330 321 294 276 186 347 343 326 320 324 322 319 313 307 310 306 305 295 294 289 282 279 280 281 276 270 268 270 273 270 267 267 268 267 268
302 346 314 9 16 38 4 341 348 8 16 27 341 335 334 330 322 289 271 324 330 315 316 318 318 315 314 309 302 302 305 302 297 290 287 283 283 281 279 279 272 270 274 274 268 266 268 262 262
310 321 339 359 3 15 10 350 5 358 4 344 340 324 327 336 324 328 320 315 291 315 313 315 314 312 310 310 308 305 302 298 295 293 288 285 282 281 280 275 271 270 265 268 263 263 266 271 267
265 338 348 345 351 338 346 339 347 341 336 331 321 314 313 313 311 311 327 330 331 329 313 307 303 301 301 298 299 299 297 295 292 291 289 286 280 275 276 275 274 275 272 273 275 270 269 267 264
267 311 351 359 350 345 322 329 331 331 328 326 318 319 314 317 317 327 323 312 314 309 314 309 307 304 302 300 298 296 294 293 292 290 285 283 279 271 269 270 272 273 271 272 274 269 277 269 268
302 349 356 346 340 347 8 336 323 320 319 314 321 326 330 325 323 320 316 315 314 308 308 313 315 312 306 302 301 300 298 297 294 292 287 282 277 272 270 270 269 269 269 270 269 272 272 267 261
328 348 343 334 355 348 3 6 336 331 328 325 313 309 316 313 311 308 308 305 303 309 313 313 308 304 306 305 302 301 298 295 292 289 285 280 276 273 269 266 265 266 266 266 269 271 270 270 269
355 348 353 351 353 360 359 349 340 332 323 309 305 297 297 301 296 298 304 309 314 310 307 306 305 308 306 304 304 300 296 293 291 290 287 281 279 274 271 268 266 265 267 269 270 271 272 273 271
345 338 341 337 343 350 349 343 339 333 324 298 308 296 272 284 285 299 311 313 307 306 304 308 309 306 305 307 305 303 301 296 292 290 286 282 279 278 276 272 266 266 268 267 268 269 270 271 271
24 8 327 334 343 344 341 337 341 348 17 12 334 350 291 303 287 287 307 311 307 308 313 310 308 309 309 307 304 301 298 296 293 290 286 283 281 278 275 273 271 269 268 267 266 266 266 270 268
354 348 314 323 333 336 337 335 338 344 349 344 336 332 333 307 302 315 307 307 311 311 311 313 314 310 306 304 301 298 296 291 287 285 285 283 281 278 277 275 270 267 265 264 264 264 265 265 266
313 310 310 323 326 326 327 332 333 341 331 334 341 332 330 347 340 318 311 312 314 315 316 315 310 306 307 305 301 299 299 297 295 293 289 283 279 277 275 272 270 267 263 262 264 266 266 264 264
298 312 307 310 314 314 321 323 325 334 331 319 331 341 316 340 344 327 322 321 321 317 316 321 319 314 310 305 303 304 301 297 297 295 290 287 282 277 273 270 270 271 270 268 266 266 265 264 263
311 302 306 311 315 318 321 317 324 330 322 320 335 330 320 336 325 324 324 321 320 325 328 325 321 319 316 317 316 313 309 306 302 297 290 285 280 277 275 272 270 270 271 269 267 265 262 261 260
310 315 311 307 314 313 313 315 314 321 316 328 328 329 328 332 330 328 327 327 335 332 329 327 327 328 328 327 323 320 320 317 315 311 305 296 286 279 275 272 271 271 270 272 270 264 260 259 257
304 310 312 309 309 311 313 310 308 310 315 319 324 328 330 331 329 332 334 336 333 335 334 335 335 336 334 329 325 323 319 313 312 312 309 301 291 284 276 274 273 272 273 274 271 261 255 255 255
307 312 319 314 308 309 307 306 303 305 317 326 331 329 332 330 331 335 334 336 339 339 338 337 337 338 338 334 331 327 324 321 317 319 314 308 298 290 280 272 268 268 268 269 266 258 254 249 251
302 303 310 300 302 299 307 308 306 315 330 331 327 326 328 330 334 334 335 340 341 338 340 342 343 341 338 336 334 334 332 330 331 330 324 318 310 300 293 286 274 266 262 264 263 257 248 239 234
294 290 290 282 288 306 310 309 311 321 320 322 324 327 329 333 335 336 341 342 339 340 342 342 341 339 338 338 338 340 338 337 338 336 330 327 323 317 300 293 287 268 260 253 252 250 235 222 215
295 295 302 307 312 317 320 321 323 318 311 320 325 325 330 335 336 339 341 339 339 339 340 341 338 338 340 343 345 345 342 343 345 342 340 336 335 341 342 335 296 157 189 185 215 208 212 209 210
307 308 311 311 313 318 321 328 333 317 314 322 321 328 333 335 337 338 337 338 338 338 339 339 337 339 344 349 346 346 346 351 355 353 350 349 350 3 14 24 98 107 208 221 223 221 219 209 206
304 313 314 310 310 314 319 326 325 321 322 321 327 332 335 336 336 335 337 338 337 338 340 342 339 345 347 349 350 349 349 359 5 7 6 9 13 26 37 76 132 148 87 72 133 136 149 167 178
311 317 308 306 313 315 319 326 329 326 325 329 333 334 335 334 333 335 340 339 337 339 339 339 342 347 352 351 355 355 355 7 14 18 19 27 37 48 51 64 74 60 89 87 124 139 143 150 137
309 319 316 316 314 314 317 322 326 329 330 333 333 334 333 333 334 336 339 338 338 339 341 341 346 352 355 358 2 4 7 16 22 28 31 36 49 54 60 63 73 84 81 93 102 118 124 122 118
Height
5892 5891 5889 5889 5894 5892 5892 5891 5888 5887 5888 5885 5885 5884 5885 5885 5884 5885 5883 5881 5880 5880 5881 5879 5879 5879 5878 5878 5878 5878 5877 5876 5876 5875 5875 5875 5875 5875 5876 5876 5875 5875 5874 5874 5874 5875 5875 5876 5878
5893 5893 5890 5887 5892 5891 5894 5893 5891 5891 5889 5886 5883 5883 5884 5885 5885 5883 5883 5882 5881 5882 5880 5879 5879 5878 5877 5878 5878 5877 5876 5875 5874 5874 5872 5872 5872 5872 5872 5872 5873 5872 5871 5870 5870 5869 5871 5872 5874
5895 5894 5893 5890 5891 5893 5895 5896 5894 5892 5890 5886 5882 5883 5886 5886 5886 5884 5883 5882 5882 5881 5879 5879 5878 5877 5877 5876 5876 5876 5875 5873 5872 5871 5870 5869 5869 5869 5869 5868 5868 5868 5867 5867 5866 5866 5865 5867 5869
5894 5895 5895 5892 5893 5896 5895 5893 5895 5891 5888 5886 5886 5887 5887 5885 5884 5885 5883 5883 5882 5879 5877 5876 5877 5876 5875 5875 5874 5873 5872 5870 5869 5868 5866 5866 5866 5865 5864 5863 5863 5862 5862 5862 5861 5861 5862 5862 5864
5894 5895 5896 5894 5896 5895 5893 5892 5894 5893 5887 5886 5887 5887 5888 5885 5882 5884 5883 5882 5880 5878 5877 5876 5875 5874 5873 5872 5872 5870 5869 5867 5865 5864 5863 5861 5860 5859 5858 5857 5857 5856 5856 5856 5857 5857 5857 5857 5858
5896 5896 5896 5895 5896 5895 5895 5894 5891 5890 5888 5888 5887 5887 5887 5883 5877 5880 5880 5879 5878 5877 5876 5875 5874 5872 5871 5870 5868 5867 5865 5863 5861 5860 5858 5857 5855 5853 5852 5850 5849 5849 5850 5850 5851 5851 5851 5850 5848
5896 5897 5896 5897 5895 5893 5892 5891 5889 5888 5890 5890 5888 5887 5885 5885 5882 5880 5880 5878 5877 5875 5874 5874 5871 5870 5867 5865 5864 5863 5860 5858 5856 5854 5853 5851 5849 5848 5845 5843 5842 5842 5843 5843 5842 5842 5842 5841 5840
5896 5898 5896 5897 5894 5894 5893 5892 5893 5891 5889 5887 5888 5886 5887 5882 5880 5876 5878 5875 5874 5873 5872 5870 5869 5866 5865 5864 5862 5859 5855 5853 5851 5848 5845 5844 5842 5841 5839 5838 5837 5836 5835 5836 5837 5835 5834 5832 5830
5897 5898 5898 5897 5898 5897 5895 5894 5892 5889 5888 5887 5887 5885 5884 5882 5879 5875 5873 5871 5869 5870 5868 5865 5862 5860 5858 5856 5854 5852 5849 5847 5844 5842 5839 5837 5835 5833 5832 5831 5830 5829 5828 5827 5827 5827 5826 5824 5822
5899 5898 5900 5900 5898 5895 5894 5893 5891 5890 5888 5886 5885 5882 5880 5879 5877 5874 5869 5866 5865 5865 5866 5864 5861 5858 5854 5852 5849 5846 5843 5840 5838 5835 5833 5830 5828 5826 5824 5823 5823 5822 5821 5820 5818 5818 5817 5817 5815
5900 5900 5899 5897 5897 5895 5891 5889 5889 5887 5885 5882 5879 5880 5877 5876 5874 5872 5870 5868 5867 5863 5859 5857 5854 5851 5849 5845 5842 5839 5835 5832 5829 5827 5825 5823 5820 5818 5816 5814 5813 5813 5813 5811 5810 5808 5808 5808 5807
5902 5900 5897 5896 5894 5892 5887 5885 5883 5883 5882 5882 5879 5876 5874 5873 5870 5868 5865 5863 5861 5859 5854 5851 5847 5844 5842 5838 5833 5830 5827 5824 5822 5819 5816 5814 5811 5809 5807 5805 5803 5802 5802 5801 5800 5800 5800 5800 5799
5901 5900 5899 5896 5892 5889 5886 5883 5882 5881 5879 5879 5879 5876 5873 5870 5867 5865 5862 5860 5856 5852 5848 5845 5841 5837 5832 5829 5825 5822 5818 5814 5810 5808 5805 5803 5800 5798 5796 5795 5793 5791 5789 5789 5789 5789 5789 5790 5790
5902 5902 5898 5894 5892 5890 5888 5887 5885 5883 5880 5876 5875 5873 5871 5869 5865 5861 5859 5855 5851 5848 5844 5840 5834 5829 5824 5820 5816 5812 5808 5804 5799 5795 5793 5791 5788 5785 5784 5781 5780 5779 5777 5775 5775 5775 5775 5777 5778
5903 5901 5896 5894 5892 5890 5888 5886 5883 5881 5875 5875 5874 5868 5866 5863 5861 5858 5854 5850 5846 5843 5839 5834 5828 5822 5818 5813 5807 5803 5797 5793 5789 5784 5780 5777 5774 5772 5769 5766 5764 5765 5764 5762 5762 5762 5763 5764 5766
5901 5899 5894 5893 5890 5888 5885 5882 5878 5872 5870 5871 5869 5862 5859 5861 5855 5854 5851 5848 5843 5838 5833 5827 5821 5815 5808 5801 5796 5790 5784 5779 5774 5769 5765 5762 5759 5756 5753 5751 5750 5749 5749 5748 5749 5749 5750 5751 5752
5897 5896 5893 5891 5889 5885 5882 5878 5874 5871 5868 5866 5864 5859 5859 5855 5854 5852 5848 5842 5837 5832 5826 5819 5811 5804 5796 5789 5783 5776 5771 5766 5762 5758 5752 5747 5743 5740 5735 5734 5733 5733 5733 5734 5735 5735 5736 5737 5739
5899 5896 5892 5889 5884 5880 5879 5878 5872 5870 5868 5864 5861 5859 5855 5853 5851 5848 5843 5838 5831 5825 5819 5812 5803 5795 5786 5780 5773 5765 5758 5751 5745 5741 5737 5733 5728 5725 5723 5719 5715 5715 5717 5718 5720 5721 5722 5723 5725
5896 5894 5892 5889 5886 5882 5878 5875 5871 5869 5865 5861 5858 5855 5851 5848 5846 5842 5836 5831 5824 5819 5813 5803 5794 5786 5778 5770 5763 5757 5749 5741 5734 5727 5721 5716 5714 5712 5709 5706 5702 5701 5701 5701 5703 5706 5707 5709 5712
5895 5892 5888 5884 5880 5877 5872 5868 5865 5865 5862 5858 5854 5852 5849 5844 5840 5835 5831 5825 5817 5810 5800 5790 5782 5774 5766 5759 5751 5744 5737 5729 5723 5716 5709 5704 5699 5694 5691 5689 5688 5688 5688 5688 5688 5690 5693 5695 5699
5893 5889 5885 5881 5876 5872 5868 5864 5861 5861 5857 5853 5850 5847 5842 5838 5833 5829 5822 5815 5806 5798 5790 5781 5773 5764 5757 5749 5742 5735 5726 5718 5710 5702 5696 5689 5683 5679 5676 5674 5674 5674 5675 5676 5676 5677 5680 5683 5687
5891 5888 5882 5877 5874 5869 5865 5860 5858 5855 5851 5848 5843 5839 5836 5831 5827 5820 5812 5804 5797 5787 5779 5770 5763 5756 5748 5742 5736 5728 5720 5712 5703 5693 5683 5675 5669 5664 5662 5662 5662 5663 5663 5664 5666 5667 5669 5674 5678
5891 5885 5881 5874 5870 5867 5862 5857 5852 5849 5848 5843 5840 5834 5831 5826 5819 5811 5804 5796 5787 5778 5771 5764 5758 5750 5744 5738 5730 5721 5712 5703 5693 5682 5671 5663 5657 5653 5650 5651 5652 5654 5655 5656 5658 5660 5662 5664 5669
5888 5884 5878 5873 5869 5865 5859 5855 5851 5848 5845 5840 5836 5831 5826 5820 5813 5805 5799 5790 5782 5774 5766 5759 5753 5747 5741 5733 5724 5715 5705 5695 5683 5673 5664 5655 5649 5645 5643 5642 5643 5645 5646 5649 5652 5654 5656 5659 5662
5882 5880 5878 5875 5869 5863 5858 5853 5849 5846 5842 5838 5833 5827 5821 5815 5808 5801 5793 5784 5776 5768 5762 5756 5751 5745 5738 5730 5720 5711 5701 5690 5678 5668 5659 5651 5645 5640 5638 5637 5637 5637 5640 5644 5647 5649 5652 5655 5658
5877 5874 5870 5863 5859 5856 5852 5848 5846 5843 5839 5835 5829 5823 5817 5811 5803 5795 5788 5781 5773 5766 5760 5754 5749 5742 5735 5726 5717 5708 5698 5688 5676 5664 5655 5648 5642 5637 5635 5634 5635 5637 5640 5642 5644 5646 5649 5653 5656
5868 5866 5864 5859 5855 5851 5848 5845 5843 5839 5836 5831 5826 5820 5813 5807 5798 5791 5785 5777 5769 5763 5758 5752 5747 5740 5732 5724 5716 5707 5697 5687 5675 5664 5654 5647 5641 5637 5635 5634 5636 5638 5640 5641 5643 5646 5648 5651 5654
5863 5862 5858 5855 5851 5848 5846 5843 5840 5837 5833 5828 5822 5815 5808 5800 5794 5788 5780 5772 5765 5760 5755 5750 5745 5738 5731 5724 5716 5707 5698 5689 5677 5665 5655 5647 5641 5638 5636 5635 5637 5639 5641 5642 5643 5646 5648 5651 5654
5859 5858 5854 5851 5847 5844 5842 5841 5837 5833 5829 5823 5816 5809 5802 5796 5790 5783 5775 5768 5762 5756 5752 5748 5743 5736 5730 5724 5716 5708 5700 5691 5680 5669 5659 5651 5645 5642 5640 5639 5640 5642 5643 5643 5644 5646 5649 5652 5655
5855 5854 5850 5846 5844 5841 5840 5839 5835 5831 5825 5818 5812 5805 5798 5791 5783 5777 5770 5763 5758 5754 5750 5746 5741 5736 5730 5724 5718 5710 5701 5694 5685 5676 5667 5659 5653 5649 5646 5645 5644 5645 5645 5646 5646 5648 5651 5654 5657